Weather History for Kendall, FL

Change the Weather History Date:

Friday, December 14, 2012

  Actual Average Record
Temperature  
Mean Temperature 72 °F -  
Max Temperature 80 °F 79 °F 82 °F (1999)
Min Temperature 63 °F 57 °F 34 °F (2010)
Cooling Degree Days 6    
Growing Degree Days 22 (Base 50)    
Moisture  
Dew Point 63 °F    
Average Humidity 80    
Maximum Humidity 96    
Minimum Humidity 58    
Precipitation  
Precipitation 0.00 in - - ()
Sea Level Pressure  
Sea Level Pressure 30.09 in    
Wind  
Wind Speed 10 mph (NNE)    
Max Wind Speed 17 mph    
Max Gust Speed 18 mph    
Visibility 10 miles    
Events      
Averages and records for this station are not official NWS values.
T = Trace of Precipitation, MM = Missing Value Source: NWS Daily Summary

Daily Weather History Graph

Daily Weather History Graph

Search for Another Location

Airport:

Trip Planner

Search our weather history database for the weather conditions in past years. The results will help you decide how hot, cold, wet, or windy it might be!

Date:

Astronomy

Dec. 14, 2012 Rise Set
Actual Time 7:00 AM EST 5:33 PM EST
Civil Twilight 6:34 AM EST 5:58 PM EST
Nautical Twilight 6:06 AM EST 6:27 PM EST
Astronomical Twilight 5:38 AM EST 6:55 PM EST
Moon 8:08 AM EST (12/14) 7:17 PM EST (12/14)
Length of Visible Light 11h 23m
Length of Day
10h 33m
Waxing Crescent, 3% of the Moon is Illuminated
Dec 14
Waxing Crescent
Dec 20
First Quarter
Dec 28
Full
Jan 4
Last Quarter
Jan 11
New

Hourly Weather History & Observations

Time (EST) Temp. Heat Index Dew Point Humidity Pressure Visibility Wind Dir Wind Speed Gust Speed Precip Events Conditions
12:12 AM 64.4 °F - 62.6 °F 94% 30.09 in 10.0 mi North 11.5 mph - N/A   Scattered Clouds
12:53 AM 64.9 °F - 62.1 °F 90% 30.09 in 10.0 mi North 11.5 mph - N/A   Mostly Cloudy
1:53 AM 64.9 °F - 62.1 °F 90% 30.08 in 10.0 mi North 10.4 mph - N/A   Scattered Clouds
2:05 AM 64.4 °F - 62.6 °F 94% 30.07 in 10.0 mi North 12.7 mph - N/A   Scattered Clouds
2:27 AM 64.4 °F - 62.6 °F 94% 30.08 in 10.0 mi North 12.7 mph - N/A   Mostly Cloudy
2:53 AM 64.0 °F - 62.1 °F 93% 30.07 in 10.0 mi North 9.2 mph - N/A   Overcast
3:53 AM 64.0 °F - 62.1 °F 93% 30.07 in 10.0 mi North 9.2 mph - N/A   Overcast
4:53 AM 64.0 °F - 62.1 °F 93% 30.07 in 10.0 mi North 9.2 mph - N/A   Overcast
5:53 AM 64.0 °F - 62.1 °F 93% 30.08 in 10.0 mi North 8.1 mph - N/A   Overcast
6:53 AM 64.0 °F - 62.1 °F 93% 30.10 in 10.0 mi NNW 10.4 mph - N/A   Overcast
7:22 AM 64.4 °F - 62.6 °F 94% 30.10 in 10.0 mi North 8.1 mph - N/A   Overcast
7:53 AM 64.0 °F - 63.0 °F 96% 30.11 in 9.0 mi North 8.1 mph - N/A   Overcast
8:53 AM 66.0 °F - 63.0 °F 90% 30.12 in 10.0 mi North 8.1 mph - N/A   Overcast
9:13 AM 69.8 °F - 64.4 °F 83% 30.13 in 10.0 mi North 8.1 mph - N/A   Mostly Cloudy
9:34 AM 69.8 °F - 64.4 °F 83% 30.13 in 10.0 mi North 8.1 mph - N/A   Scattered Clouds
9:53 AM 72.0 °F - 64.9 °F 78% 30.13 in 10.0 mi NNW 8.1 mph - N/A   Clear
10:53 AM 75.0 °F - 64.9 °F 71% 30.13 in 10.0 mi North 9.2 mph - N/A   Partly Cloudy
11:53 AM 78.1 °F - 66.0 °F 66% 30.11 in 10.0 mi Variable 3.5 mph - N/A   Clear
12:16 PM 77.0 °F - 64.4 °F 65% 30.09 in 10.0 mi ENE 3.5 mph - N/A   Mostly Cloudy
12:30 PM 78.8 °F - 64.4 °F 61% 30.08 in 10.0 mi ENE 12.7 mph - N/A   Overcast
12:53 PM 80.1 °F 81.9 °F 64.9 °F 60% 30.07 in 10.0 mi NE 13.8 mph 18.4 mph N/A   Mostly Cloudy
1:53 PM 79.0 °F - 63.0 °F 58% 30.07 in 10.0 mi ENE 11.5 mph - N/A   Mostly Cloudy
2:53 PM 80.1 °F 81.7 °F 64.0 °F 58% 30.06 in 10.0 mi NE 17.3 mph - N/A   Scattered Clouds
3:53 PM 77.0 °F - 61.0 °F 58% 30.06 in 10.0 mi NE 15.0 mph - N/A   Mostly Cloudy
4:53 PM 75.9 °F - 62.1 °F 62% 30.05 in 10.0 mi ENE 13.8 mph - N/A   Partly Cloudy
5:53 PM 73.9 °F - 62.1 °F 66% 30.06 in 10.0 mi ENE 9.2 mph - N/A   Mostly Cloudy
6:53 PM 73.0 °F - 62.1 °F 68% 30.07 in 10.0 mi NE 5.8 mph - N/A   Clear
7:53 PM 71.1 °F - 62.1 °F 73% 30.08 in 10.0 mi NNE 6.9 mph - N/A   Clear
8:53 PM 69.1 °F - 62.1 °F 78% 30.08 in 10.0 mi NE 4.6 mph - N/A   Clear
9:53 PM 63.0 °F - 61.0 °F 93% 30.11 in 10.0 mi NW 3.5 mph - N/A   Clear
10:53 PM 64.9 °F - 63.0 °F 93% 30.09 in 10.0 mi Calm Calm - N/A   Scattered Clouds
11:53 PM 68.0 °F - 64.0 °F 87% 30.09 in 10.0 mi North 5.8 mph - 0.00 in   Mostly Cloudy